GW3691 Weather Reports


time (UTC)temp
C
wind
direction
speed
KPH
gust
KPH
rain 1hr
cm
rain 24hr
cm
rain mn
cm
humidity
%
barometer
mb
20260510171143 32 165 0.0 1.6 0.00 0.00 0.00 62 1019.8
20260510170639 31 184 3.2 3.2 0.00 0.00 0.00 63 1019.8
20260510170135 31 164 1.6 1.6 0.00 0.00 0.00 62 1019.7
20260510165631 31 168 0.0 0.0 0.00 0.00 0.00 59 1020.0
20260510165127 31 220 4.8 4.8 0.00 0.00 0.00 64 1019.9
20260510164626 31 180 0.0 0.0 0.00 0.00 0.00 67 1019.9
20260510164122 30 72 4.8 4.8 0.00 0.00 0.00 67 1020.1
20260510163617 30 212 3.2 3.2 0.00 0.00 0.00 68 1020.2
20260510163114 30 164 1.6 1.6 0.00 0.00 0.00 70 1020.3
20260510162614 29 214 3.2 3.2 0.00 0.00 0.00 71 1020.5
20260510162111 29 188 4.8 4.8 0.00 0.00 0.00 71 1020.6
20260510161606 29 184 0.0 0.0 0.00 0.00 0.00 71 1020.4
20260510161104 29 194 3.2 3.2 0.00 0.00 0.00 72 1020.4
20260510160601 29 245 4.8 4.8 0.00 0.00 0.00 71 1020.4
20260510160100 29 234 1.6 3.2 0.00 0.00 0.00 71 1020.6
20260510155557 29 187 1.6 3.2 0.00 0.00 0.00 72 1020.4
20260510155053 30 210 3.2 3.2 0.00 0.00 0.00 72 1020.5
20260510154549 28 172 0.0 0.0 0.00 0.00 0.00 74 1020.6
20260510154044 28 167 0.0 1.6 0.00 0.00 0.00 75 1020.6
20260510153539 28 202 3.2 3.2 0.00 0.00 0.00 75 1020.8
20260510153036 28 243 4.8 4.8 0.00 0.00 0.00 75 1020.7
20260510152533 28 167 1.6 3.2 0.00 0.00 0.00 74 1020.6
20260510152029 28 226 4.8 4.8 0.00 0.00 0.00 73 1020.8
20260510151526 28 215 1.6 3.2 0.00 0.00 0.00 76 1020.4
20260510151024 28 196 4.8 4.8 0.00 0.00 0.00 76 1020.8
20260510150519 27 174 0.0 1.6 0.00 0.00 0.00 78 1020.5
20260510150015 27 180 1.6 1.6 0.00 0.00 0.00 77 1020.7
20260510145512 27 195 0.0 1.6 0.00 0.00 0.00 78 1020.5
20260510145008 27 163 1.6 1.6 0.00 0.00 0.00 78 1020.4
20260510144505 27 196 0.0 1.6 0.00 0.00 0.00 78 1020.2
20260510144001 27 170 0.0 0.0 0.00 0.00 0.00 79 1020.3
20260510143456 27 165 0.0 1.6 0.00 0.00 0.00 80 1020.4
20260510142953 27 171 0.0 0.0 0.00 0.00 0.00 80 1020.5
20260510142450 27 207 1.6 3.2 0.00 0.00 0.00 79 1020.2
20260510141947 27 163 1.6 3.2 0.00 0.00 0.00 80 1020.6
20260510141443 27 174 0.0 1.6 0.00 0.00 0.00 81 1020.3
20260510140941 27 209 3.2 4.8 0.00 0.00 0.00 82 1020.3
20260510140437 27 212 1.6 3.2 0.00 0.00 0.00 83 1020.0
20260510135936 26 189 3.2 4.8 0.00 0.00 0.00 83 1020.1
20260510135432 26 161 1.6 1.6 0.00 0.00 0.00 87 1019.9
20260510134929 25 160 0.0 1.6 0.00 0.00 0.00 88 1019.9
20260510134426 25 169 1.6 3.2 0.00 0.00 0.00 91 1019.9
20260510133922 25 161 1.6 1.6 0.00 0.00 0.00 93 1020.0
20260510133419 24 156 0.0 0.0 0.00 0.00 0.00 95 1019.8
20260510132914 23 180 1.6 3.2 0.00 0.00 0.00 95 1019.7
20260510132412 23 187 0.0 0.0 0.00 0.00 0.00 96 1020.0
20260510131909 23 165 0.0 0.0 0.00 0.00 0.00 96 1019.7
20260510131406 23 165 0.0 0.0 0.00 0.00 0.00 97 1019.9
20260510130903 23 161 0.0 0.0 0.00 0.00 0.00 97 1019.6
20260510130400 23 170 0.0 0.0 0.00 0.00 0.00 97 1019.8
20260510125857 23 190 0.0 0.0 0.00 0.00 0.00 97 1019.7
20260510125353 23 176 0.0 0.0 0.00 0.00 0.00 97 1019.9
20260510124850 23 172 0.0 0.0 0.00 0.00 0.00 97 1019.7
20260510124346 23 171 0.0 0.0 0.00 0.00 0.00 97 1019.5
20260510123842 23 198 0.0 0.0 0.00 0.00 0.00 97 1019.6
20260510123338 23 165 0.0 0.0 0.00 0.00 0.00 98 1019.4
20260510122834 23 162 0.0 0.0 0.00 0.00 0.00 98 1019.4
20260510122330 23 169 0.0 0.0 0.00 0.00 0.00 98 1019.6
20260510121827 22 166 0.0 0.0 0.00 0.00 0.00 98 1019.4
20260510121325 22 160 0.0 0.0 0.00 0.00 0.00 98 1019.1
20260510120822 22 171 0.0 0.0 0.00 0.00 0.00 98 1019.2
20260510120319 22 171 0.0 0.0 0.00 0.00 0.00 98 1019.2
20260510115814 22 171 0.0 0.0 0.00 0.00 0.00 98 1018.9
20260510115312 22 171 0.0 0.0 0.00 0.00 0.00 98 1019.1
20260510114807 21 171 0.0 0.0 0.00 0.00 0.00 98 1018.9
20260510114305 21 171 0.0 0.0 0.00 0.00 0.00 98 1019.1
20260510113800 21 171 0.0 0.0 0.00 0.00 0.00 98 1018.8
20260510113257 21 171 0.0 0.0 0.00 0.00 0.00 98 1018.8
20260510112753 21 171 0.0 0.0 0.00 0.00 0.00 98 1018.7
20260510112250 21 171 0.0 0.0 0.00 0.00 0.00 98 1018.6
20260510111746 21 171 0.0 0.0 0.00 0.00 0.00 98 1018.8
20260510111243 20 171 0.0 0.0 0.00 0.00 0.00 98 1018.3
20260510110742 20 171 0.0 0.0 0.00 0.00 0.00 98 1018.1
20260510110241 20 171 0.0 0.0 0.00 0.00 0.00 98 1018.4
20260510105741 20 171 0.0 0.0 0.00 0.00 0.00 98 1018.3
20260510105235 20 171 0.0 0.0 0.00 0.00 0.00 98 1018.3
20260510104732 20 171 0.0 0.0 0.00 0.00 0.00 98 1018.2
20260510104230 20 171 0.0 0.0 0.00 0.00 0.00 98 1018.3
20260510103726 20 171 0.0 0.0 0.00 0.00 0.00 98 1018.0
20260510103224 20 171 0.0 0.0 0.00 0.00 0.00 98 1018.0
20260510102722 21 171 0.0 0.0 0.00 0.00 0.00 98 1017.8
20260510102218 21 172 0.0 0.0 0.00 0.00 0.00 98 1017.9
20260510101716 21 172 0.0 0.0 0.00 0.00 0.00 98 1017.8
20260510101214 21 176 0.0 0.0 0.00 0.00 0.00 98 1017.8
20260510100710 21 168 0.0 0.0 0.00 0.00 0.00 98 1017.4
20260510100208 21 168 0.0 0.0 0.00 0.00 0.00 98 1017.6
20260510095703 21 168 0.0 0.0 0.00 0.00 0.00 97 1017.7
20260510095158 21 168 0.0 0.0 0.00 0.00 0.00 97 1017.4
20260510094657 21 168 0.0 0.0 0.00 0.00 0.00 97 1017.5
20260510094153 21 168 0.0 0.0 0.00 0.00 0.00 97 1017.5
20260510093649 21 168 0.0 0.0 0.00 0.00 0.00 97 1017.5
20260510093147 21 168 0.0 0.0 0.00 0.00 0.00 97 1017.6
20260510092643 21 167 0.0 0.0 0.00 0.00 0.00 97 1017.3
20260510092138 21 167 0.0 0.0 0.00 0.00 0.00 97 1017.5
20260510091635 21 167 0.0 0.0 0.00 0.00 0.00 97 1017.2
20260510091131 21 167 0.0 0.0 0.00 0.00 0.00 97 1017.2
20260510090628 21 167 0.0 0.0 0.00 0.00 0.00 97 1017.1
20260510090124 21 167 0.0 0.0 0.00 0.00 0.00 97 1017.0
20260510085614 21 167 0.0 0.0 0.00 0.00 0.00 97 1017.2
20260510085110 21 167 0.0 0.0 0.00 0.00 0.00 97 1016.9
20260510084606 21 167 0.0 0.0 0.00 0.00 0.00 97 1017.0
20260510084103 21 165 0.0 0.0 0.00 0.00 0.00 97 1016.8
20260510083600 21 164 0.0 0.0 0.00 0.00 0.00 97 1017.0
20260510083056 21 165 0.0 0.0 0.00 0.00 0.00 97 1016.8
20260510082553 21 165 0.0 0.0 0.00 0.00 0.00 97 1016.7
20260510082048 21 164 0.0 0.0 0.00 0.00 0.00 97 1017.0
20260510081543 21 164 0.0 0.0 0.00 0.00 0.00 97 1016.9
20260510081039 21 164 0.0 0.0 0.00 0.00 0.00 97 1016.7
20260510080538 21 165 0.0 0.0 0.00 0.00 0.00 97 1016.7
20260510080036 21 165 0.0 0.0 0.00 0.00 0.00 97 1016.7
20260510075533 21 164 0.0 0.0 0.00 0.00 0.00 97 1016.6
20260510075030 21 164 0.0 0.0 0.00 0.00 0.00 97 1016.8
20260510074528 21 172 0.0 0.0 0.00 0.00 0.00 97 1016.9
20260510074023 21 167 0.0 0.0 0.00 0.00 0.00 97 1017.1
20260510073519 21 164 0.0 0.0 0.00 0.00 0.00 97 1017.0
20260510073016 21 164 0.0 0.0 0.00 0.00 0.00 97 1017.0
20260510072512 21 164 0.0 0.0 0.00 0.00 0.00 97 1017.1
20260510072007 21 164 0.0 0.0 0.00 0.00 0.00 97 1017.1
20260510071504 21 164 0.0 0.0 0.00 0.00 0.00 97 1017.0
20260510071002 21 164 0.0 0.0 0.00 0.00 0.00 97 1017.0
20260510070454 21 164 0.0 0.0 0.00 0.00 0.00 97 1017.0
20260510065949 21 164 0.0 0.0 0.00 0.00 0.00 97 1017.0
20260510065447 21 164 0.0 0.0 0.00 0.00 0.00 97 1017.2
20260510064942 21 164 0.0 0.0 0.00 0.00 0.00 97 1017.2
20260510064440 21 164 0.0 0.0 0.00 0.00 0.00 97 1017.4
20260510063937 21 164 0.0 0.0 0.00 0.00 0.00 97 1017.4
20260510063432 21 165 0.0 0.0 0.00 0.00 0.00 97 1017.6
20260510062930 21 165 0.0 0.0 0.00 0.00 0.00 97 1017.6
20260510062425 21 165 0.0 0.0 0.00 0.00 0.00 97 1017.8
20260510061921 21 165 0.0 0.0 0.00 0.00 0.00 97 1017.6
20260510061418 21 170 0.0 0.0 0.00 0.00 0.00 97 1017.7
20260510060914 21 172 0.0 0.0 0.00 0.00 0.00 97 1017.9
20260510060410 21 177 0.0 0.0 0.00 0.00 0.00 97 1017.7
20260510055907 21 151 0.0 0.0 0.00 0.00 0.00 97 1018.0
20260510055402 21 167 0.0 0.0 0.00 0.00 0.00 97 1017.9
20260510054900 21 152 0.0 0.0 0.00 0.00 0.00 97 1018.2
20260510054355 21 156 0.0 0.0 0.00 0.00 0.00 97 1018.2
20260510053851 21 157 0.0 0.0 0.00 0.00 0.00 97 1018.1
20260510053346 21 156 0.0 0.0 0.00 0.00 0.00 97 1018.2
20260510052838 21 156 0.0 0.0 0.00 0.00 0.00 97 1018.1
20260510052333 21 156 0.0 0.0 0.00 0.00 0.00 97 1018.4
20260510051830 21 155 0.0 0.0 0.00 0.00 0.00 97 1018.3
20260510051327 21 154 0.0 0.0 0.00 0.00 0.00 97 1018.1
20260510050824 21 160 0.0 0.0 0.00 0.00 0.00 97 1018.5
20260510050320 21 160 0.0 0.0 0.00 0.00 0.00 97 1018.2
20260510045818 21 160 0.0 0.0 0.00 0.00 0.00 97 1018.8
20260510045314 21 160 0.0 0.0 0.00 0.00 0.00 97 1018.7
20260510044811 21 160 0.0 0.0 0.00 0.00 0.00 97 1018.6
20260510044308 21 160 0.0 0.0 0.00 0.00 0.00 97 1018.7
20260510043804 21 160 0.0 0.0 0.00 0.00 0.00 97 1018.5
20260510043300 21 160 0.0 0.0 0.00 0.00 0.00 97 1018.5
20260510042758 21 160 0.0 0.0 0.00 0.00 0.00 97 1018.6
20260510042253 21 160 0.0 0.0 0.00 0.00 0.00 97 1018.8
20260510041744 21 160 0.0 0.0 0.00 0.00 0.00 97 1018.7
20260510041241 21 160 0.0 0.0 0.00 0.00 0.00 97 1018.8
20260510040738 21 160 0.0 0.0 0.00 0.00 0.00 97 1018.9
20260510040230 21 160 0.0 0.0 0.00 0.00 0.00 97 1018.6
20260510035725 21 160 0.0 0.0 0.00 1.22 1.22 97 1018.7
20260510035221 21 160 0.0 0.0 0.00 1.22 1.22 97 1018.8
20260510034717 21 160 0.0 0.0 0.00 1.22 1.22 97 1018.9
20260510034216 21 160 0.0 0.0 0.00 1.22 1.22 97 1018.7
20260510033711 21 160 0.0 0.0 0.00 1.22 1.22 97 1018.8
20260510033210 21 160 0.0 0.0 0.00 1.22 1.22 97 1018.8
20260510032705 21 160 0.0 0.0 0.00 1.22 1.22 97 1018.6
20260510032201 21 160 0.0 0.0 0.00 1.22 1.22 97 1018.8
20260510031655 21 160 0.0 0.0 0.00 1.22 1.22 97 1018.7
20260510031152 22 160 0.0 0.0 0.00 1.22 1.22 97 1018.7
20260510030647 22 160 0.0 0.0 0.00 1.22 1.22 97 1018.7
20260510030145 22 160 0.0 0.0 0.00 1.22 1.22 97 1018.5
20260510025642 22 160 0.0 0.0 0.00 1.22 1.22 97 1018.8
20260510025139 22 160 0.0 0.0 0.00 1.22 1.22 96 1018.8
20260510024636 22 160 0.0 0.0 0.00 1.22 1.22 96 1018.6
20260510024132 22 159 0.0 0.0 0.00 1.22 1.22 96 1018.5
20260510023628 22 159 0.0 0.0 0.00 1.22 1.22 96 1018.3
20260510023125 22 159 0.0 0.0 0.00 1.22 1.22 96 1018.3
20260510022619 22 159 0.0 0.0 0.00 1.22 1.22 96 1018.4
20260510022114 22 172 0.0 0.0 0.00 1.22 1.22 96 1018.4
20260510021610 22 172 0.0 0.0 0.00 1.22 1.22 96 1018.3
20260510021108 22 171 0.0 0.0 0.00 1.22 1.22 96 1018.2
20260510020602 22 171 0.0 0.0 0.00 1.22 1.22 96 1017.9
20260510020057 22 172 0.0 0.0 0.00 1.22 1.22 96 1018.3
20260510015553 22 172 0.0 0.0 0.00 1.22 1.22 96 1018.2
20260510015049 22 171 0.0 0.0 0.00 1.22 1.22 96 1018.0
20260510014546 22 158 0.0 0.0 0.00 1.22 1.22 96 1018.0
20260510014043 22 166 0.0 0.0 0.00 1.22 1.22 96 1017.6
20260510013538 22 153 0.0 0.0 0.00 1.22 1.22 96 1017.8
20260510013034 22 170 0.0 0.0 0.00 1.22 1.22 96 1018.0
20260510012528 22 170 0.0 0.0 0.00 1.22 1.22 96 1017.9
20260510012024 22 170 0.0 0.0 0.00 1.22 1.22 96 1017.8
20260510011519 22 170 0.0 0.0 0.00 1.22 1.22 96 1017.8
20260510011014 22 170 0.0 0.0 0.00 1.22 1.22 96 1017.9
20260510010512 22 171 0.0 0.0 0.00 1.22 1.22 96 1017.9
20260510010009 22 170 0.0 0.0 0.00 1.22 1.22 96 1017.7
20260510005504 22 171 0.0 0.0 0.00 1.22 1.22 96 1017.6
20260510005002 22 171 0.0 0.0 0.00 1.22 1.22 96 1017.7
20260510004459 22 171 0.0 0.0 0.00 1.22 1.22 96 1017.9
20260510003957 22 169 0.0 0.0 0.00 1.22 1.22 96 1017.6
20260510003454 22 169 0.0 0.0 0.00 1.22 1.22 95 1017.6
20260510002949 22 169 0.0 0.0 0.00 1.22 1.22 95 1017.5
20260510002445 22 169 0.0 0.0 0.00 1.22 1.22 95 1017.3
20260510001941 22 169 0.0 0.0 0.00 1.22 1.22 95 1017.2
20260510001439 22 169 0.0 0.0 0.00 1.22 1.22 95 1017.1
20260510000936 22 169 0.0 0.0 0.00 1.22 1.22 95 1017.4
20260510000433 22 169 0.0 0.0 0.00 1.22 1.22 95 1017.1
20260509235929 23 169 0.0 0.0 0.00 1.22 1.22 95 1016.8
20260509235426 23 169 0.0 0.0 0.00 1.22 1.22 95 1016.9
20260509234922 23 169 0.0 0.0 0.00 1.22 1.22 95 1017.0
20260509234419 23 169 0.0 0.0 0.00 1.22 1.22 95 1016.8
20260509233917 23 170 0.0 0.0 0.00 1.22 1.22 95 1016.9
20260509233415 23 155 0.0 0.0 0.00 1.22 1.22 95 1016.7
20260509232911 23 154 0.0 0.0 0.00 1.22 1.22 95 1017.0
20260509232409 23 154 0.0 0.0 0.00 1.22 1.22 95 1016.9
20260509231904 23 154 0.0 0.0 0.00 1.22 1.22 95 1017.0
20260509231401 23 151 0.0 0.0 0.00 1.22 1.22 95 1016.9
20260509230859 23 155 0.0 0.0 0.00 1.22 1.22 95 1016.7
20260509230356 23 155 0.0 0.0 0.00 1.22 1.22 95 1016.8
20260509225851 23 156 0.0 0.0 0.00 1.22 1.22 95 1016.5
20260509225348 23 157 0.0 0.0 0.00 1.22 1.22 95 1016.6
20260509224844 23 159 0.0 0.0 0.00 1.22 1.22 95 1016.7
20260509224340 23 159 0.0 0.0 0.00 1.22 1.22 95 1016.7
20260509223837 23 159 0.0 0.0 0.00 1.22 1.22 95 1016.5
20260509223334 22 160 0.0 0.0 0.00 1.22 1.22 95 1016.6
20260509222831 22 164 0.0 0.0 0.00 1.22 1.22 95 1016.4
20260509222326 23 172 0.0 0.0 0.00 1.22 1.22 95 1016.7
20260509221822 23 170 0.0 0.0 0.00 1.22 1.22 95 1016.4
20260509221320 22 170 0.0 0.0 0.00 1.22 1.22 95 1016.4
20260509220819 23 171 0.0 0.0 0.00 1.22 1.22 95 1016.5
20260509220315 22 170 0.0 0.0 0.00 1.22 1.22 95 1016.4
20260509215811 22 164 0.0 0.0 0.00 1.22 1.22 95 1016.6
20260509215308 22 164 0.0 0.0 0.00 1.22 1.22 95 1016.5
20260509214805 22 147 1.6 1.6 0.00 1.22 1.22 95 1016.4
20260509214302 22 171 0.0 0.0 0.00 1.22 1.22 95 1016.4
20260509213759 22 171 1.6 1.6 0.00 1.22 1.22 95 1016.5
20260509213254 23 180 1.6 3.2 0.00 1.22 1.22 95 1016.1
20260509212752 23 177 1.6 1.6 0.00 1.22 1.22 95 1016.5
20260509212249 23 153 0.0 0.0 0.00 1.22 1.22 95 1016.4
20260509211745 23 168 0.0 0.0 0.00 1.22 1.22 95 1016.5
20260509211242 23 169 0.0 0.0 0.00 1.22 1.22 95 1016.3
20260509210738 23 167 0.0 0.0 0.00 1.22 1.22 95 1016.6
20260509210237 23 167 0.0 0.0 0.00 1.22 1.22 95 1016.7
20260509205735 23 169 0.0 0.0 0.00 1.22 1.22 95 1016.6
20260509205230 23 170 0.0 0.0 0.00 1.22 1.22 95 1016.7
20260509204726 22 181 1.6 1.6 0.00 1.22 1.22 94 1016.5
20260509204223 22 149 0.0 0.0 0.00 1.22 1.22 94 1016.3
20260509203719 23 143 0.0 0.0 0.00 1.22 1.22 94 1016.5
20260509203217 23 160 0.0 0.0 0.00 1.22 1.22 94 1016.3
20260509202712 22 153 0.0 0.0 0.00 1.22 1.22 94 1016.1
20260509202208 23 155 0.0 0.0 0.00 1.22 1.22 94 1016.3
20260509201703 22 165 0.0 0.0 0.00 1.22 1.22 93 1016.0
20260509201200 22 185 1.6 1.6 0.00 1.22 1.22 93 1016.0
20260509200656 22 173 0.0 0.0 0.00 1.22 1.22 93 1016.4
20260509200152 23 151 1.6 1.6 0.89 1.22 1.22 93 1016.2
20260509195648 23 177 4.8 4.8 3.66 1.22 1.22 92 1016.1
20260509195143 23 186 1.6 3.2 3.00 0.86 0.86 91 1016.9
20260509194642 25 198 12.9 14.5 2.59 0.61 0.61 90 1016.7
20260509194140 25 174 1.6 1.6 1.98 0.41 0.41 88 1016.1
20260509193635 27 181 0.0 0.0 0.89 0.15 0.15 85 1016.1
20260509193126 28 152 0.0 0.0 0.30 0.05 0.05 82 1016.0
20260509192623 28 170 0.0 0.0 0.00 0.00 0.00 77 1015.9
20260509192118 28 167 0.0 0.0 0.00 0.00 0.00 71 1015.5
20260509191612 29 166 0.0 0.0 0.00 0.00 0.00 71 1015.6
20260509191109 29 165 0.0 0.0 0.00 0.00 0.00 69 1015.7
20260509190606 29 153 0.0 0.0 0.00 0.00 0.00 69 1015.6
20260509190103 30 154 0.0 0.0 0.00 0.00 0.00 70 1015.8
20260509185601 30 156 0.0 0.0 0.00 0.00 0.00 66 1015.7
20260509185056 30 165 0.0 0.0 0.00 0.00 0.00 66 1015.9
20260509184555 30 109 0.0 1.6 0.00 0.00 0.00 66 1015.9
20260509184051 31 106 1.6 1.6 0.00 0.00 0.00 65 1015.8
20260509183547 30 152 0.0 1.6 0.00 0.00 0.00 67 1016.1
20260509183043 30 180 3.2 3.2 0.00 0.00 0.00 67 1016.4
20260509182539 30 171 0.0 0.0 0.00 0.00 0.00 67 1016.2
20260509182036 30 192 3.2 3.2 0.00 0.00 0.00 65 1016.3
20260509181534 30 170 4.8 8.0 0.00 0.00 0.00 64 1016.4
20260509181031 30 186 4.8 4.8 0.00 0.00 0.00 67 1016.5
20260509180527 30 215 0.0 0.0 0.00 0.00 0.00 65 1016.5
20260509180025 30 168 1.6 1.6 0.00 0.00 0.00 68 1016.8
20260509175520 30 281 4.8 8.0 0.00 0.00 0.00 68 1016.7
20260509175017 30 172 0.0 0.0 0.00 0.00 0.00 68 1016.7
20260509174514 30 179 1.6 1.6 0.00 0.00 0.00 70 1016.9
20260509174009 30 177 0.0 0.0 0.00 0.00 0.00 69 1016.7
20260509173503 30 172 3.2 3.2 0.00 0.00 0.00 69 1016.8
20260509173000 30 186 0.0 0.0 0.00 0.00 0.00 68 1016.9
20260509172457 30 170 0.0 0.0 0.00 0.00 0.00 68 1017.2
20260509171952 30 165 1.6 3.2 0.00 0.00 0.00 70 1016.9